This is the latest recevied weather packets stored in our database for station/object VE3EP-1. If no packets are shown the sender has not sent any weather packets the latest 10 day(s).
| Time | Temp. | Humidity | Pressure | Rain* | Wind** | Luminosity | Snow |
|---|---|---|---|---|---|---|---|
| 1777870928 | 7.22° C | 92% | 1010.1 hPa | 0 mm | - | - | - |
| 1777870328 | 7.22° C | 92% | 1010.5 hPa | 0 mm | - | - | - |
| 1777869728 | 7.22° C | 93% | 1010.4 hPa | 0 mm | - | - | - |
| 1777869128 | 7.22° C | 94% | 1010.5 hPa | 0 mm | - | - | - |
| 1777868528 | 6.67° C | 94% | 1010.5 hPa | 0 mm | - | - | - |
| 1777867928 | 6.67° C | 94% | 1010.4 hPa | 0 mm | - | - | - |
| 1777867328 | 6.67° C | 94% | 1010.6 hPa | 0.25 mm | - | - | - |
| 1777866729 | 6.67° C | 94% | 1010.6 hPa | 0.51 mm | - | - | - |
| 1777866128 | 6.67° C | 94% | 1010.6 hPa | 0.76 mm | - | - | - |
| 1777865528 | 7.22° C | 94% | 1010.7 hPa | 1.02 mm | - | - | - |
| 1777864928 | 7.22° C | 94% | 1011 hPa | 1.02 mm | - | - | - |
| 1777863727 | 7.22° C | 93% | 1011.5 hPa | 1.02 mm | - | - | - |
| 1777863128 | 7.22° C | 92% | 1011.4 hPa | 0.76 mm | - | - | - |
| 1777861928 | 7.22° C | 92% | 1011.2 hPa | 0.51 mm | - | - | - |
| 1777861328 | 7.78° C | 91% | 1011.1 hPa | 0.51 mm | - | - | - |
| 1777860729 | 7.78° C | 91% | 1011.4 hPa | 0.25 mm | - | - | - |
| 1777860128 | 7.78° C | 91% | 1011.1 hPa | 0.51 mm | - | - | - |
| 1777859528 | 7.22° C | 92% | 1011 hPa | 0.51 mm | - | - | - |
| 1777858329 | 6.67° C | 89% | 1011.4 hPa | 0.25 mm | - | - | - |
| 1777856529 | 6.67° C | 84% | 1011.5 hPa | 0 mm | - | - | - |
| 1777855929 | 7.22° C | 78% | 1011.6 hPa | 0 mm | - | - | - |
| 1777855329 | 7.22° C | 72% | 1011.5 hPa | 0 mm | - | - | - |
| 1777854730 | 7.22° C | 68% | 1011.3 hPa | 0 mm | - | - | - |
| 1777854129 | 7.22° C | 66% | 1011.1 hPa | 0 mm | - | - | - |
| 1777852929 | 7.22° C | 61% | 1011.2 hPa | 0 mm | - | - | - |
* Rain latest hour (hover to see other rain measurements)
** Current wind speed in m/s (hover to see current wind gust speed)